Content
SEND FEEDBACK

Daily
Averages
Monthly
Summary
United States of America

YIGO, GUAM


Home > North America > United States > Guam
Elevation: 530 feet     Latitude: 13 32N     Longitude: 144 53E

WEATHER
 
SELECT A DAY
Number of Records: 209,285;   Date Range: 1/1/95 - 9/16/14
 
SHARE

PRINT THIS DATA

[ ← Previous Day ]
WEATHER ALMANAC - OCTOBER 28, 2013
[ Next Day → ]
[ °C ]   °F
Weather ElementAverageHighLow
Temperature79.6 °F82.9 °F (11:54 am)77 °F (11:54 pm)
Dewpoint76.8 °F78.8 °F (1:38 am)75 °F (9:54 am)
Humidity91.3 %97 % (2:54 am)85 % (11:54 am)
Barometer29.82 in29.91 in (9:54 pm)29.76 in (3:54 am)
Wind Speed11.1 mph23 mph (2:41 am)
Wind Gust29.9 mph (2:41 am)
Weather ElementAverage
Visibility8.9 mi
Wind DirectionESE (122.8 °)

Weather ElementTotal
Precipitation0.48 in
Cooling Degree Days15 (Base 65)
Growing Degree Days30 (Base 50)
Averaged from 39 records on October 28, 2013
WEATHER CONDITIONS BREAKOUT
WIND DIRECTION BREAKOUT
WEATHER BY HOUR - OCTOBER 28, 2013
[ °C ]   °F
Local TimeTemperatureDewpointHumidityBarometerVisibilityWind DirectionWind SpeedGust SpeedPrecipitationEventsConditions
12:16 AM80.6 °F77.0 °F89 %29.82 in10.0 miEast (100°)12.7 mph26.5 mphScattered Clouds
12:54 AM81.0 °F77.0 °F88 %29.79 in10.0 miEast (100°)18.4 mph25.3 mphMostly Cloudy
1:16 AM80.6 °F77.0 °F89 %29.81 in10.0 miEast (100°)15.0 mph24.2 mph0.00 inMostly Cloudy
1:38 AM80.6 °F78.8 °F94 %29.80 in10.0 miEast (100°)13.8 mph23.0 mph0.01 inMostly Cloudy
1:54 AM80.1 °F75.9 °F87 %29.77 in10.0 miEast (100°)16.1 mph23.0 mph0.01 inMostly Cloudy
2:41 AM78.8 °F77.0 °F94 %29.79 in4.0 miEast (90°)23.0 mph29.9 mph0.01 inRainRain
2:54 AM79.0 °F78.1 °F97 %29.77 in10.0 miEast (100°)15.0 mph28.8 mph0.04 inMostly Cloudy
3:44 AM78.8 °F77.0 °F94 %29.77 in10.0 miESE (110°)17.3 mph25.3 mphScattered Clouds
3:54 AM80.1 °F77.0 °F90 %29.76 in10.0 miESE (110°)13.8 mph23.0 mphPartly Cloudy
4:28 AM80.6 °F77.0 °F89 %29.78 in10.0 miESE (110°)11.5 mph20.7 mphMostly Cloudy
4:54 AM81.0 °F77.0 °F88 %29.77 in10.0 miEast (100°)17.3 mph27.6 mphMostly Cloudy
5:14 AM80.6 °F77.0 °F89 %29.78 in10.0 miESE (110°)18.4 mph25.3 mphMostly Cloudy
5:54 AM78.1 °F75.9 °F93 %29.80 in4.0 miESE (120°)12.7 mph24.2 mph0.01 inRainHeavy Rain
6:07 AM78.8 °F75.2 °F89 %29.81 in10.0 miSE (140°)10.4 mph0.02 inRainLight Rain
6:16 AM78.8 °F77.0 °F94 %29.81 in3.0 miESE (110°)15.0 mph19.6 mph0.07 inRainHeavy Rain
6:24 AM78.8 °F77.0 °F94 %29.82 in7.0 miESE (110°)15.0 mph21.9 mph0.08 inRainLight Rain
6:54 AM79.0 °F78.1 °F97 %29.80 in9.0 miSE (140°)12.7 mph19.6 mph0.09 inOvercast
7:11 AM78.8 °F77.0 °F94 %29.83 in10.0 miSE (130°)10.4 mph19.6 mph0.00 inMostly Cloudy
7:35 AM80.6 °F78.8 °F94 %29.84 in10.0 miSE (130°)11.5 mph19.6 mph0.00 inMostly Cloudy
7:54 AM81.0 °F77.0 °F88 %29.81 in10.0 miSE (130°)10.4 mph20.7 mph0.00 inMostly Cloudy
8:03 AM80.6 °F77.0 °F89 %29.84 in10.0 miSE (130°)11.5 mph20.7 mphPartly Cloudy
8:54 AM81.0 °F77.0 °F88 %29.86 in10.0 miSE (130°)8.1 mph21.9 mph0.00 inMostly Cloudy
9:54 AM78.1 °F75.0 °F90 %29.86 in1.0 miSE (140°)13.8 mph28.8 mphRainRain
10:04 AM78.8 °F75.2 °F89 %29.87 in6.0 miSE (130°)10.4 mph20.7 mph0.01 inRainLight Rain
10:21 AM78.8 °F77.0 °F94 %29.87 in10.0 miESE (120°)10.4 mph0.01 inMostly Cloudy
10:54 AM80.1 °F78.1 °F94 %29.84 in10.0 miESE (120°)9.2 mph19.6 mph0.01 inOvercast
11:54 AM82.9 °F78.1 °F85 %29.81 in10.0 miSE (140°)12.7 mph19.6 mphScattered Clouds
2:54 PM81.0 °F77.0 °F88 %29.80 in10.0 miSSE (160°)15.0 mph19.6 mph0.02 inMostly Cloudy
3:28 PM78.8 °F75.2 °F89 %29.81 in8.0 miSSE (150°)9.2 mph0.01 inRainLight Rain
3:45 PM80.6 °F78.8 °F94 %29.82 in10.0 miSE (140°)5.8 mph0.02 inMostly Cloudy
3:54 PM79.0 °F77.0 °F94 %29.81 in10.0 miSE (130°)8.1 mph0.04 inMostly Cloudy
4:54 PM80.1 °F78.1 °F94 %29.81 in9.0 miSSE (150°)5.8 mph0.02 inRainLight Rain
5:54 PM78.1 °F75.9 °F93 %29.85 in7.0 miSSE (150°)4.6 mph0.00 inRainLight Rain
6:54 PM79.0 °F75.9 °F90 %29.87 in10.0 miSSW (200°)5.8 mph0.00 inMostly Cloudy
7:54 PM78.1 °F75.9 °F93 %29.88 in10.0 miSouth (190°)4.6 mph0.00 inScattered Clouds
8:54 PM78.1 °F75.9 °F93 %29.89 in10.0 miCalmScattered Clouds
9:54 PM79.0 °F75.0 °F88 %29.91 in10.0 miSouth (180°)4.6 mphMostly Cloudy
10:54 PM78.1 °F75.0 °F90 %29.89 in10.0 miSouth (190°)3.5 mphPartly Cloudy
11:54 PM77.0 °F75.0 °F94 %29.88 in10.0 miCalmPartly Cloudy
Hourly data recorded from PGUM, located miles away from Yigo, Guam







STORIES FROM OUR PARTNERS